Wright-Patt AFB, OH

7:41 AM EDT on June 27, 2017 (GMT -0400)
Wright-Patterson Air Force Base

Weather History for KFFO - August, 2013

Change the Weather History Date:

Thursday, August 15, 2013

  Actual Average Record
Temperature  
Mean Temperature 60 °F -  
Max Temperature 73 °F 81 °F 91 °F (2003)
Min Temperature 48 °F 60 °F 48 °F (2013)
Degree Days  
Heating Degree Days 5    
Growing Degree Days 10 (Base 50)    
Moisture  
Dew Point 51 °F    
Average Humidity 76    
Maximum Humidity 100    
Minimum Humidity 47    
Precipitation  
Precipitation 0.00 in - - ()
Sea Level Pressure  
Sea Level Pressure 30.17 in    
Wind  
Wind Speed 3 mph (NE)    
Max Wind Speed 8 mph    
Max Gust Speed -    
Visibility 8 miles    
Events Fog    
Averages and records for this station are not official NWS values.
T = Trace of Precipitation, MM = Missing Value Source: NWS Daily Summary

Daily Weather History Graph

Daily Weather History Graph

Search for Another Location

Airport or City:

Trip Planner

Search our weather history database for the weather conditions in past years. The results will help you decide how hot, cold, wet, or windy it might be!

Date:

Astronomy

Aug. 15, 2013 Rise Set
Actual Time 6:48 AM EDT 8:32 PM EDT
Civil Twilight 6:19 AM EDT 9:00 PM EDT
Nautical Twilight 5:44 AM EDT 9:35 PM EDT
Astronomical Twilight 5:06 AM EDT 10:13 PM EDT
Moon 3:48 PM EDT (8/15) 12:57 AM EDT (8/15)
Length of Visible Light 14h 41m
Length of Day
13h 43m
Waxing Gibbous, 64% of the Moon is Illuminated
Aug 15
Waxing Gibbous
Aug 20
Full
Aug 28
Last Quarter
Sep 5
New
Sep 12
First Quarter

Hourly Weather History & Observations

Time (EDT) Temp. Dew Point Humidity Pressure Visibility Wind Dir Wind Speed Gust Speed Precip Events Conditions
12:58 AM 54.9 °F 51.4 °F 88% 30.20 in 10.0 mi NE 3.5 mph - N/A   Clear
1:58 AM 52.0 °F 50.0 °F 93% 30.19 in 10.0 mi NE 3.5 mph - N/A   Clear
2:58 AM 52.0 °F 49.6 °F 92% 30.18 in 10.0 mi NE 1.2 mph - N/A   Clear
3:58 AM 50.5 °F 48.2 °F 92% 30.18 in 10.0 mi Calm Calm - N/A   Clear
4:58 AM 49.1 °F 48.0 °F 96% 30.19 in 10.0 mi SSW 1.2 mph - N/A   Clear
5:48 AM 50.0 °F 48.2 °F 94% 30.18 in 1.5 mi NE 2.3 mph - N/A   Clear
5:58 AM 49.6 °F 49.3 °F 99% 30.19 in 7.0 mi Calm Calm - N/A Fog Patches of Fog
6:08 AM 50.0 °F 50.0 °F 100% 30.18 in 2.0 mi East 1.2 mph - N/A   Clear
6:13 AM 50.0 °F 48.2 °F 94% 30.18 in 0.1 mi ENE 1.2 mph - N/A   Mist
6:16 AM 50.0 °F 48.2 °F 94% 30.18 in 2.5 mi Calm Calm - N/A   Mist
6:18 AM 50.0 °F 48.2 °F 94% 30.18 in 2.0 mi Calm Calm - N/A   Mist
6:38 AM 50.0 °F 48.2 °F 94% 30.19 in 5.0 mi Calm Calm - N/A   Mist
6:58 AM 49.6 °F 48.6 °F 96% 30.20 in 7.0 mi NNE 3.5 mph - N/A Fog Patches of Fog
7:08 AM 48.2 °F 48.2 °F 100% 30.19 in 7.0 mi NE 4.6 mph - N/A Fog Patches of Fog
7:58 AM 51.8 °F 50.2 °F 94% 30.20 in 10.0 mi Calm Calm - N/A   Clear
8:58 AM 55.9 °F 52.3 °F 88% 30.21 in 10.0 mi NNE 2.3 mph - N/A   Clear
9:58 AM 60.8 °F 54.1 °F 79% 30.20 in 10.0 mi NW 1.2 mph - N/A   Clear
10:58 AM 65.1 °F 54.9 °F 69% 30.19 in 10.0 mi ESE 4.6 mph - N/A   Clear
10:59 AM 65.1 °F 54.9 °F 69% 30.19 in 10.0 mi ESE 5.8 mph - N/A   Mostly Cloudy
11:02 AM 66.2 °F 51.8 °F 60% 30.19 in 10.0 mi Variable 2.3 mph - N/A   Mostly Cloudy
11:40 AM 68.0 °F 51.8 °F 56% 30.20 in 10.0 mi East 6.9 mph - N/A   Mostly Cloudy
11:58 AM 68.0 °F 53.6 °F 60% 30.20 in 10.0 mi SE 5.8 mph - N/A   Mostly Cloudy
12:58 PM 68.9 °F 51.1 °F 53% 30.19 in 10.0 mi ESE 2.3 mph - N/A   Mostly Cloudy
1:17 PM 69.8 °F 51.8 °F 53% 30.18 in 10.0 mi North 4.6 mph - N/A   Mostly Cloudy
1:50 PM 69.8 °F 50.0 °F 49% 30.17 in 10.0 mi Variable 6.9 mph - N/A   Mostly Cloudy
1:58 PM 69.6 °F 51.4 °F 52% 30.18 in 10.0 mi NE 6.9 mph - N/A   Mostly Cloudy
2:58 PM 70.2 °F 51.4 °F 51% 30.16 in 10.0 mi NNW 5.8 mph - N/A   Mostly Cloudy
3:58 PM 71.6 °F 51.4 °F 49% 30.14 in 10.0 mi North 8.1 mph - N/A   Mostly Cloudy
4:58 PM 72.0 °F 50.7 °F 47% 30.13 in 10.0 mi Variable 6.9 mph - N/A   Mostly Cloudy
5:58 PM 71.6 °F 51.4 °F 49% 30.12 in 10.0 mi NE 5.8 mph - N/A   Mostly Cloudy
6:58 PM 70.3 °F 52.9 °F 54% 30.12 in 10.0 mi NE 4.6 mph - N/A   Partly Cloudy
7:58 PM 68.2 °F 53.6 °F 60% 30.13 in 10.0 mi North 3.5 mph - N/A   Mostly Cloudy
8:58 PM 63.3 °F 55.6 °F 76% 30.14 in 10.0 mi North 4.6 mph - N/A   Partly Cloudy
9:58 PM 63.1 °F 55.2 °F 75% 30.16 in 10.0 mi Calm Calm - N/A   Scattered Clouds
10:58 PM 61.3 °F 55.6 °F 81% 30.15 in 10.0 mi NNE 2.3 mph - N/A   Clear
11:58 PM 59.0 °F 53.8 °F 83% 30.14 in 10.0 mi North 2.3 mph - N/A   Partly Cloudy